Find Starlink 1480

NORAD ID: 45741 Int'l Des: 2020-038 Owner: SPXS Country: US Constellation: starlink operational
LEOCIRCULAR

实时位置

正在加载3D地球...

关于 Starlink 1480

正在加载描述...

即将过境

Passes for default location (London). Set your location on the main map for personalized predictions.

高度历史

Loading altitude history...

两行轨道根数

1 45741U 20038M 26110.14938293 .00026946 00000-0 35281-3 0 9992
2 45741 53.0534 17.1296 0002853 152.9998 207.1162 15.58424472322929
Epoch: Apr 20, 2026 • Age: 13 hours

当前状态

高度 390.7 km
速度 7.68 km/s
星下点 5.32°N, 92.14°E
发射日期 Jun 13, 2020
运行时间 5.8 years
类型 internet

技术详情

分类 Payload
质量 260.00 kg
干质量 248.00 kg
总质量 260.00 kg
长度 0.20 m
直径 2.80 m
跨度 9.00 m
形状 Box + pan
制造商 SPXS
平台类型 Starlink
阶段状态 In Orbit
所有者/国家 SPXS/US

Most Searched